Data supplied by UK-AIR on 1/5/2024
All Data GMT hour ending 
Status: R =Ratified P=Provisional,P*=As supplied
,,Dewsbury Ashworth Grange,,,,,,,,,,,,,,,,,,,,,,,
Date,time,"PM<sub>10</sub> particulate matter (Hourly measured)",status,unit,"Nitric oxide",status,unit,"Nitrogen dioxide",status,unit,"Nitrogen oxides as nitrogen dioxide",status,unit,"Ozone",status,unit,"PM<sub>2.5</sub> particulate matter (Hourly measured)",status,unit
 
01-01-2024,01:00,3.175,P,ugm-3 (FIDAS),0.82322,P,ugm-3,2.76229,P,ugm-3,4.02454,P,ugm-3,63.59631,P,ugm-3,2.311,P,ugm-3 (Ref.eq)
01-01-2024,02:00,3.175,P,ugm-3 (FIDAS),0.72032,P,ugm-3,3.09060,P,ugm-3,4.19507,P,ugm-3,69.45036,P,ugm-3,2.075,P,ugm-3 (Ref.eq)
01-01-2024,03:00,4.725,P,ugm-3 (FIDAS),0.51451,P,ugm-3,1.25747,P,ugm-3,2.04638,P,ugm-3,70.94714,P,ugm-3,2.524,P,ugm-3 (Ref.eq)
01-01-2024,04:00,5.950,P,ugm-3 (FIDAS),0.72032,P,ugm-3,1.35118,P,ugm-3,2.45565,P,ugm-3,68.45251,P,ugm-3,3.160,P,ugm-3 (Ref.eq)
01-01-2024,05:00,7.525,P,ugm-3 (FIDAS),0.51451,P,ugm-3,0.89935,P,ugm-3,1.68826,P,ugm-3,68.80176,P,ugm-3,3.561,P,ugm-3 (Ref.eq)
01-01-2024,06:00,8.150,P,ugm-3 (FIDAS),0.34301,P,ugm-3,0.85537,P,ugm-3,1.38130,P,ugm-3,67.60434,P,ugm-3,4.057,P,ugm-3 (Ref.eq)
01-01-2024,07:00,4.025,P,ugm-3 (FIDAS),0.85752,P,ugm-3,0.62921,P,ugm-3,1.94406,P,ugm-3,69.89939,P,ugm-3,2.264,P,ugm-3 (Ref.eq)
01-01-2024,08:00,8.225,P,ugm-3 (FIDAS),0.65171,P,ugm-3,1.30289,P,ugm-3,2.30217,P,ugm-3,67.95359,P,ugm-3,3.797,P,ugm-3 (Ref.eq)
01-01-2024,09:00,9.500,P,ugm-3 (FIDAS),0.58311,P,ugm-3,2.27779,P,ugm-3,3.17188,P,ugm-3,66.25724,P,ugm-3,4.151,P,ugm-3 (Ref.eq)
01-01-2024,10:00,8.775,P,ugm-3 (FIDAS),0.75462,P,ugm-3,2.32178,P,ugm-3,3.47884,P,ugm-3,64.81036,P,ugm-3,3.797,P,ugm-3 (Ref.eq)
01-01-2024,11:00,11.400,P,ugm-3 (FIDAS),1.23483,P,ugm-3,3.01793,P,ugm-3,4.91130,P,ugm-3,68.40262,P,ugm-3,5.094,P,ugm-3 (Ref.eq)
01-01-2024,12:00,10.975,P,ugm-3 (FIDAS),1.06332,P,ugm-3,3.74133,P,ugm-3,5.37173,P,ugm-3,71.04692,P,ugm-3,5.236,P,ugm-3 (Ref.eq)
01-01-2024,13:00,7.900,P,ugm-3 (FIDAS),1.54353,P,ugm-3,7.35356,P,ugm-3,9.72028,P,ugm-3,68.40262,P,ugm-3,4.363,P,ugm-3 (Ref.eq)
01-01-2024,14:00,10.750,P,ugm-3 (FIDAS),1.61214,P,ugm-3,9.39707,P,ugm-3,11.86898,P,ugm-3,63.16391,P,ugm-3,5.165,P,ugm-3 (Ref.eq)
01-01-2024,15:00,11.450,P,ugm-3 (FIDAS),2.94987,P,ugm-3,14.55938,P,ugm-3,19.08245,P,ugm-3,54.33293,P,ugm-3,5.849,P,ugm-3 (Ref.eq)
01-01-2024,16:00,12.175,P,ugm-3 (FIDAS),1.61214,P,ugm-3,23.10778,P,ugm-3,25.57969,P,ugm-3,41.21121,P,ugm-3,6.297,P,ugm-3 (Ref.eq)
01-01-2024,17:00,12.275,P,ugm-3 (FIDAS),1.85224,P,ugm-3,17.87948,P,ugm-3,20.71955,P,ugm-3,43.75572,P,ugm-3,6.580,P,ugm-3 (Ref.eq)
01-01-2024,18:00,14.850,P,ugm-3 (FIDAS),1.74934,P,ugm-3,21.05567,P,ugm-3,23.73795,P,ugm-3,39.91400,P,ugm-3,8.962,P,ugm-3 (Ref.eq)
01-01-2024,19:00,14.125,P,ugm-3 (FIDAS),4.59630,P,ugm-3,27.38270,P,ugm-3,34.43026,P,ugm-3,32.28045,P,ugm-3,9.976,P,ugm-3 (Ref.eq)
01-01-2024,20:00,10.125,P,ugm-3 (FIDAS),2.12665,P,ugm-3,19.09583,P,ugm-3,22.35665,P,ugm-3,41.31099,P,ugm-3,7.547,P,ugm-3 (Ref.eq)
01-01-2024,21:00,4.450,P,ugm-3 (FIDAS),2.36675,P,ugm-3,10.03058,P,ugm-3,13.65955,P,ugm-3,58.07487,P,ugm-3,3.443,P,ugm-3 (Ref.eq)
01-01-2024,22:00,2.850,P,ugm-3 (FIDAS),2.26385,P,ugm-3,9.52329,P,ugm-3,12.99448,P,ugm-3,59.27229,P,ugm-3,2.170,P,ugm-3 (Ref.eq)
01-01-2024,23:00,1.875,P,ugm-3 (FIDAS),2.19525,P,ugm-3,9.93544,P,ugm-3,13.30144,P,ugm-3,56.92734,P,ugm-3,1.486,P,ugm-3 (Ref.eq)
01-01-2024,24:00,1.625,P,ugm-3 (FIDAS),0.82322,P,ugm-3,6.97441,P,ugm-3,8.23666,P,ugm-3,55.82971,P,ugm-3,1.297,P,ugm-3 (Ref.eq)
02-01-2024,01:00,2.550,P,ugm-3 (FIDAS),0.45734,P,ugm-3,10.89488,P,ugm-3,11.59612,P,ugm-3,46.49981,P,ugm-3,2.028,P,ugm-3 (Ref.eq)
02-01-2024,02:00,3.600,P,ugm-3 (FIDAS),1.16623,P,ugm-3,15.04325,P,ugm-3,16.83143,P,ugm-3,40.37966,P,ugm-3,2.759,P,ugm-3 (Ref.eq)
02-01-2024,03:00,4.850,P,ugm-3 (FIDAS),0.89182,P,ugm-3,6.05067,P,ugm-3,7.41811,P,ugm-3,64.16176,P,ugm-3,3.538,P,ugm-3 (Ref.eq)
02-01-2024,04:00,7.150,P,ugm-3 (FIDAS),0.41161,P,ugm-3,3.76858,P,ugm-3,4.39971,P,ugm-3,70.44821,P,ugm-3,4.410,P,ugm-3 (Ref.eq)
02-01-2024,05:00,9.400,P,ugm-3 (FIDAS),0.41161,P,ugm-3,4.68945,P,ugm-3,5.32058,P,ugm-3,69.84950,P,ugm-3,5.896,P,ugm-3 (Ref.eq)
02-01-2024,06:00,7.650,P,ugm-3 (FIDAS),0.51451,P,ugm-3,4.27587,P,ugm-3,5.06478,P,ugm-3,70.39832,P,ugm-3,5.212,P,ugm-3 (Ref.eq)
02-01-2024,07:00,8.325,P,ugm-3 (FIDAS),0.68602,P,ugm-3,5.39421,P,ugm-3,6.44608,P,ugm-3,67.90369,P,ugm-3,5.259,P,ugm-3 (Ref.eq)
02-01-2024,08:00,7.825,P,ugm-3 (FIDAS),1.74934,P,ugm-3,20.13480,P,ugm-3,22.81708,P,ugm-3,45.80132,P,ugm-3,5.047,P,ugm-3 (Ref.eq)
02-01-2024,09:00,13.550,P,ugm-3 (FIDAS),34.02634,P,ugm-3,69.07472,P,ugm-3,121.24772,P,ugm-3,3.54237,P,ugm-3,8.373,P,ugm-3 (Ref.eq)
02-01-2024,10:00,15.050,P,ugm-3 (FIDAS),12.45117,P,ugm-3,48.84812,P,ugm-3,67.93965,P,ugm-3,19.05894,P,ugm-3,9.811,P,ugm-3 (Ref.eq)
02-01-2024,11:00,12.475,P,ugm-3 (FIDAS),12.69128,P,ugm-3,52.26576,P,ugm-3,71.72544,P,ugm-3,16.66410,P,ugm-3,7.948,P,ugm-3 (Ref.eq)
02-01-2024,12:00,12.575,P,ugm-3 (FIDAS),9.91292,P,ugm-3,43.17325,P,ugm-3,58.37285,P,ugm-3,24.09808,P,ugm-3,8.019,P,ugm-3 (Ref.eq)
02-01-2024,13:00,11.100,P,ugm-3 (FIDAS),9.08970,P,ugm-3,46.83999,P,ugm-3,60.77734,P,ugm-3,19.45808,P,ugm-3,8.656,P,ugm-3 (Ref.eq)
02-01-2024,14:00,10.375,P,ugm-3 (FIDAS),14.23481,P,ugm-3,50.35947,P,ugm-3,72.18588,P,ugm-3,22.40173,P,ugm-3,8.396,P,ugm-3 (Ref.eq)
02-01-2024,15:00,6.425,P,ugm-3 (FIDAS),9.05540,P,ugm-3,47.86462,P,ugm-3,61.74937,P,ugm-3,33.37808,P,ugm-3,4.929,P,ugm-3 (Ref.eq)
02-01-2024,16:00,5.700,P,ugm-3 (FIDAS),2.98417,P,ugm-3,39.21677,P,ugm-3,43.79243,P,ugm-3,44.10497,P,ugm-3,4.363,P,ugm-3 (Ref.eq)
02-01-2024,17:00,8.875,P,ugm-3 (FIDAS),3.46438,P,ugm-3,50.45175,P,ugm-3,55.76372,P,ugm-3,31.13292,P,ugm-3,7.241,P,ugm-3 (Ref.eq)
02-01-2024,18:00,9.400,P,ugm-3 (FIDAS),8.36938,P,ugm-3,59.81344,P,ugm-3,72.64631,P,ugm-3,23.05034,P,ugm-3,7.476,P,ugm-3 (Ref.eq)
02-01-2024,19:00,7.500,P,ugm-3 (FIDAS),0.99472,P,ugm-3,37.66286,P,ugm-3,39.18808,P,ugm-3,41.06153,P,ugm-3,5.991,P,ugm-3 (Ref.eq)
02-01-2024,20:00,5.250,P,ugm-3 (FIDAS),1.37203,P,ugm-3,28.84767,P,ugm-3,30.95142,P,ugm-3,48.79487,P,ugm-3,4.481,P,ugm-3 (Ref.eq)
02-01-2024,21:00,3.100,P,ugm-3 (FIDAS),4.87071,P,ugm-3,20.92514,P,ugm-3,28.39345,P,ugm-3,58.07487,P,ugm-3,2.594,P,ugm-3 (Ref.eq)
02-01-2024,22:00,3.225,P,ugm-3 (FIDAS),0.41161,P,ugm-3,16.09799,P,ugm-3,16.72912,P,ugm-3,60.07057,P,ugm-3,2.759,P,ugm-3 (Ref.eq)
02-01-2024,23:00,2.250,P,ugm-3 (FIDAS),0.44591,P,ugm-3,11.23642,P,ugm-3,11.92013,P,ugm-3,63.66283,P,ugm-3,1.675,P,ugm-3 (Ref.eq)
02-01-2024,24:00,1.700,P,ugm-3 (FIDAS),0.13720,P,ugm-3,9.10063,P,ugm-3,9.31101,P,ugm-3,64.26154,P,ugm-3,1.156,P,ugm-3 (Ref.eq)
03-01-2024,01:00,1.550,P,ugm-3 (FIDAS),0.18294,P,ugm-3,4.49438,P,ugm-3,4.77488,P,ugm-3,70.04907,P,ugm-3,0.943,P,ugm-3 (Ref.eq)
03-01-2024,02:00,1.900,P,ugm-3 (FIDAS),0.51451,P,ugm-3,2.74109,P,ugm-3,3.53000,P,ugm-3,72.31086,P,ugm-3,1.203,P,ugm-3 (Ref.eq)
03-01-2024,03:00,4.075,P,ugm-3 (FIDAS),0.99472,P,ugm-3,5.02318,P,ugm-3,6.54840,P,ugm-3,69.15101,P,ugm-3,2.311,P,ugm-3 (Ref.eq)
03-01-2024,04:00,5.325,P,ugm-3 (FIDAS),0.99472,P,ugm-3,6.55796,P,ugm-3,8.08318,P,ugm-3,62.91444,P,ugm-3,3.514,P,ugm-3 (Ref.eq)
03-01-2024,05:00,7.600,P,ugm-3 (FIDAS),0.61741,P,ugm-3,6.62490,P,ugm-3,7.57159,P,ugm-3,58.62369,P,ugm-3,5.236,P,ugm-3 (Ref.eq)
03-01-2024,06:00,7.100,P,ugm-3 (FIDAS),0.89182,P,ugm-3,8.76212,P,ugm-3,10.12956,P,ugm-3,52.08777,P,ugm-3,4.481,P,ugm-3 (Ref.eq)
03-01-2024,07:00,7.100,P,ugm-3 (FIDAS),3.94459,P,ugm-3,25.61937,P,ugm-3,31.66765,P,ugm-3,26.09378,P,ugm-3,4.458,P,ugm-3 (Ref.eq)
03-01-2024,08:00,17.975,P,ugm-3 (FIDAS),19.10552,P,ugm-3,47.70014,P,ugm-3,76.99486,P,ugm-3,2.04559,P,ugm-3,11.793,P,ugm-3 (Ref.eq)
03-01-2024,09:00,24.025,P,ugm-3 (FIDAS),47.47224,P,ugm-3,53.57391,P,ugm-3,126.36366,P,ugm-3,1.39699,P,ugm-3,18.302,P,ugm-3 (Ref.eq)
03-01-2024,10:00,20.900,P,ugm-3 (FIDAS),120.94445,P,ugm-3,57.10103,P,ugm-3,242.54660,P,ugm-3,1.24731,P,ugm-3,15.260,P,ugm-3 (Ref.eq)
03-01-2024,11:00,23.350,P,ugm-3 (FIDAS),117.61727,P,ugm-3,58.72379,P,ugm-3,239.06776,P,ugm-3,1.39699,P,ugm-3,17.807,P,ugm-3 (Ref.eq)
03-01-2024,12:00,22.025,P,ugm-3 (FIDAS),106.33233,P,ugm-3,60.42353,P,ugm-3,223.46415,P,ugm-3,3.69205,P,ugm-3,14.009,P,ugm-3 (Ref.eq)
03-01-2024,13:00,10.300,P,ugm-3 (FIDAS),5.72823,P,ugm-3,32.55362,P,ugm-3,41.33678,P,ugm-3,29.23701,P,ugm-3,8.042,P,ugm-3 (Ref.eq)
03-01-2024,14:00,9.050,P,ugm-3 (FIDAS),4.01319,P,ugm-3,28.22563,P,ugm-3,34.37910,P,ugm-3,32.57980,P,ugm-3,7.500,P,ugm-3 (Ref.eq)
03-01-2024,15:00,7.225,P,ugm-3 (FIDAS),2.94987,P,ugm-3,26.07024,P,ugm-3,30.59331,P,ugm-3,37.76862,P,ugm-3,5.590,P,ugm-3 (Ref.eq)
03-01-2024,16:00,8.750,P,ugm-3 (FIDAS),4.56200,P,ugm-3,33.31862,P,ugm-3,40.31359,P,ugm-3,28.78797,P,ugm-3,6.792,P,ugm-3 (Ref.eq)
03-01-2024,17:00,10.075,P,ugm-3 (FIDAS),2.70976,P,ugm-3,35.44245,P,ugm-3,39.59736,P,ugm-3,25.84432,P,ugm-3,7.830,P,ugm-3 (Ref.eq)
03-01-2024,18:00,7.525,P,ugm-3 (FIDAS),3.15567,P,ugm-3,35.47496,P,ugm-3,40.31359,P,ugm-3,28.58840,P,ugm-3,5.778,P,ugm-3 (Ref.eq)
03-01-2024,19:00,8.700,P,ugm-3 (FIDAS),11.25065,P,ugm-3,41.17326,P,ugm-3,58.42401,P,ugm-3,22.90066,P,ugm-3,6.863,P,ugm-3 (Ref.eq)
03-01-2024,20:00,10.725,P,ugm-3 (FIDAS),24.62794,P,ugm-3,51.05036,P,ugm-3,88.81268,P,ugm-3,10.77678,P,ugm-3,8.585,P,ugm-3 (Ref.eq)
03-01-2024,21:00,8.325,P,ugm-3 (FIDAS),9.02110,P,ugm-3,33.69490,P,ugm-3,47.52706,P,ugm-3,30.28475,P,ugm-3,6.722,P,ugm-3 (Ref.eq)
03-01-2024,22:00,3.950,P,ugm-3 (FIDAS),0.99472,P,ugm-3,13.87375,P,ugm-3,15.39897,P,ugm-3,49.44347,P,ugm-3,3.160,P,ugm-3 (Ref.eq)
03-01-2024,23:00,4.100,P,ugm-3 (FIDAS),0.65171,P,ugm-3,10.92085,P,ugm-3,11.92013,P,ugm-3,49.74282,P,ugm-3,2.901,P,ugm-3 (Ref.eq)
03-01-2024,24:00,4.900,P,ugm-3 (FIDAS),0.58311,P,ugm-3,9.49126,P,ugm-3,10.38535,P,ugm-3,47.34798,P,ugm-3,3.774,P,ugm-3 (Ref.eq)
04-01-2024,01:00,6.450,P,ugm-3 (FIDAS),0.73175,P,ugm-3,10.54234,P,ugm-3,11.66434,P,ugm-3,47.76375,P,ugm-3,4.976,P,ugm-3 (Ref.eq)
04-01-2024,02:00,9.300,P,ugm-3 (FIDAS),1.23483,P,ugm-3,19.59356,P,ugm-3,21.48694,P,ugm-3,25.74453,P,ugm-3,7.429,P,ugm-3 (Ref.eq)
04-01-2024,03:00,7.025,P,ugm-3 (FIDAS),0.34301,P,ugm-3,12.51970,P,ugm-3,13.04564,P,ugm-3,36.77077,P,ugm-3,5.354,P,ugm-3 (Ref.eq)
04-01-2024,04:00,3.375,P,ugm-3 (FIDAS),0.27441,P,ugm-3,8.94142,P,ugm-3,9.36217,P,ugm-3,50.54110,P,ugm-3,2.594,P,ugm-3 (Ref.eq)
04-01-2024,05:00,2.125,P,ugm-3 (FIDAS),0.48021,P,ugm-3,8.21658,P,ugm-3,8.95289,P,ugm-3,49.04433,P,ugm-3,1.462,P,ugm-3 (Ref.eq)
04-01-2024,06:00,2.200,P,ugm-3 (FIDAS),0.20581,P,ugm-3,9.40472,P,ugm-3,9.72028,P,ugm-3,48.34583,P,ugm-3,1.415,P,ugm-3 (Ref.eq)
04-01-2024,07:00,5.450,P,ugm-3 (FIDAS),0.65171,P,ugm-3,12.30216,P,ugm-3,13.30144,P,ugm-3,48.49551,P,ugm-3,3.939,P,ugm-3 (Ref.eq)
04-01-2024,08:00,8.050,P,ugm-3 (FIDAS),1.57784,P,ugm-3,14.00285,P,ugm-3,16.42216,P,ugm-3,46.79917,P,ugm-3,5.802,P,ugm-3 (Ref.eq)
04-01-2024,09:00,7.075,P,ugm-3 (FIDAS),1.13193,P,ugm-3,15.09584,P,ugm-3,16.83143,P,ugm-3,46.30024,P,ugm-3,5.236,P,ugm-3 (Ref.eq)
04-01-2024,10:00,9.375,P,ugm-3 (FIDAS),1.09762,P,ugm-3,18.93423,P,ugm-3,20.61723,P,ugm-3,43.25680,P,ugm-3,6.816,P,ugm-3 (Ref.eq)
04-01-2024,11:00,10.525,P,ugm-3 (FIDAS),3.01847,P,ugm-3,19.46782,P,ugm-3,24.09607,P,ugm-3,44.85336,P,ugm-3,6.816,P,ugm-3 (Ref.eq)
04-01-2024,12:00,12.600,P,ugm-3 (FIDAS),2.91556,P,ugm-3,17.47690,P,ugm-3,21.94737,P,ugm-3,47.69723,P,ugm-3,7.429,P,ugm-3 (Ref.eq)
04-01-2024,13:00,13.325,P,ugm-3 (FIDAS),3.22427,P,ugm-3,14.18979,P,ugm-3,19.13361,P,ugm-3,52.63659,P,ugm-3,7.005,P,ugm-3 (Ref.eq)
04-01-2024,14:00,13.525,P,ugm-3 (FIDAS),2.16095,P,ugm-3,19.19672,P,ugm-3,22.51013,P,ugm-3,47.99659,P,ugm-3,7.123,P,ugm-3 (Ref.eq)
04-01-2024,15:00,14.500,P,ugm-3 (FIDAS),2.05805,P,ugm-3,20.12189,P,ugm-3,23.27752,P,ugm-3,46.44992,P,ugm-3,7.453,P,ugm-3 (Ref.eq)
04-01-2024,16:00,14.925,P,ugm-3 (FIDAS),1.85224,P,ugm-3,22.48383,P,ugm-3,25.32389,P,ugm-3,44.15486,P,ugm-3,7.712,P,ugm-3 (Ref.eq)
04-01-2024,17:00,19.000,P,ugm-3 (FIDAS),29.15564,P,ugm-3,51.37262,P,ugm-3,96.07731,P,ugm-3,9.32990,P,ugm-3,10.943,P,ugm-3 (Ref.eq)
04-01-2024,18:00,30.000,P,ugm-3 (FIDAS),98.27165,P,ugm-3,68.94610,P,ugm-3,219.62720,P,ugm-3,1.89592,P,ugm-3,17.642,P,ugm-3 (Ref.eq)
04-01-2024,19:00,48.150,P,ugm-3 (FIDAS),122.14497,P,ugm-3,64.72474,P,ugm-3,252.01108,P,ugm-3,1.94581,P,ugm-3,33.703,P,ugm-3 (Ref.eq)
04-01-2024,20:00,56.275,P,ugm-3 (FIDAS),118.92070,P,ugm-3,61.32957,P,ugm-3,243.67210,P,ugm-3,0.84817,P,ugm-3,44.882,P,ugm-3 (Ref.eq)
04-01-2024,21:00,73.325,P,ugm-3 (FIDAS),136.96290,P,ugm-3,57.40321,P,ugm-3,267.41005,P,ugm-3,1.24731,P,ugm-3,60.826,P,ugm-3 (Ref.eq)
04-01-2024,22:00,30.850,P,ugm-3 (FIDAS),59.85481,P,ugm-3,51.11204,P,ugm-3,142.88813,P,ugm-3,0.64860,P,ugm-3,23.561,P,ugm-3 (Ref.eq)
04-01-2024,23:00,31.900,P,ugm-3 (FIDAS),45.17409,P,ugm-3,46.71233,P,ugm-3,115.97830,P,ugm-3,0.84817,P,ugm-3,24.198,P,ugm-3 (Ref.eq)
04-01-2024,24:00,29.800,P,ugm-3 (FIDAS),29.63585,P,ugm-3,41.99037,P,ugm-3,87.43137,P,ugm-3,0.54882,P,ugm-3,23.255,P,ugm-3 (Ref.eq)
05-01-2024,01:00,28.675,P,ugm-3 (FIDAS),26.06857,P,ugm-3,37.51815,P,ugm-3,77.48940,P,ugm-3,0.59871,P,ugm-3,22.193,P,ugm-3 (Ref.eq)
05-01-2024,02:00,24.750,P,ugm-3 (FIDAS),18.06506,P,ugm-3,36.01110,P,ugm-3,63.71048,P,ugm-3,0.66523,P,ugm-3,19.977,P,ugm-3 (Ref.eq)
05-01-2024,03:00,22.025,P,ugm-3 (FIDAS),14.57782,P,ugm-3,33.61601,P,ugm-3,55.96836,P,ugm-3,2.04559,P,ugm-3,17.005,P,ugm-3 (Ref.eq)
05-01-2024,04:00,12.400,P,ugm-3 (FIDAS),1.09762,P,ugm-3,22.20843,P,ugm-3,23.89143,P,ugm-3,18.65980,P,ugm-3,9.788,P,ugm-3 (Ref.eq)
05-01-2024,05:00,7.450,P,ugm-3 (FIDAS),0.06860,P,ugm-3,6.54553,P,ugm-3,6.65072,P,ugm-3,44.45422,P,ugm-3,5.660,P,ugm-3 (Ref.eq)
05-01-2024,06:00,6.275,P,ugm-3 (FIDAS),-0.75462,P,ugm-3,9.70068,P,ugm-3,8.54362,P,ugm-3,41.80992,P,ugm-3,5.189,P,ugm-3 (Ref.eq)
05-01-2024,07:00,5.500,P,ugm-3 (FIDAS),0.78892,P,ugm-3,15.41714,P,ugm-3,16.62680,P,ugm-3,35.72303,P,ugm-3,4.269,P,ugm-3 (Ref.eq)
05-01-2024,08:00,8.700,P,ugm-3 (FIDAS),4.87071,P,ugm-3,32.89643,P,ugm-3,40.36475,P,ugm-3,17.21291,P,ugm-3,6.651,P,ugm-3 (Ref.eq)
05-01-2024,09:00,10.375,P,ugm-3 (FIDAS),13.61740,P,ugm-3,46.90645,P,ugm-3,67.78617,P,ugm-3,6.68560,P,ugm-3,6.958,P,ugm-3 (Ref.eq)
05-01-2024,10:00,10.575,P,ugm-3 (FIDAS),31.89970,P,ugm-3,46.44889,P,ugm-3,95.36108,P,ugm-3,5.53807,P,ugm-3,6.392,P,ugm-3 (Ref.eq)
05-01-2024,11:00,10.075,P,ugm-3 (FIDAS),49.29018,P,ugm-3,49.25166,P,ugm-3,124.82888,P,ugm-3,9.23011,P,ugm-3,7.500,P,ugm-3 (Ref.eq)
05-01-2024,12:00,9.100,P,ugm-3 (FIDAS),26.61738,P,ugm-3,42.78167,P,ugm-3,83.59442,P,ugm-3,22.05249,P,ugm-3,6.533,P,ugm-3 (Ref.eq)
05-01-2024,13:00,6.275,P,ugm-3 (FIDAS),4.56200,P,ugm-3,28.76543,P,ugm-3,35.76040,P,ugm-3,31.08303,P,ugm-3,3.986,P,ugm-3 (Ref.eq)
05-01-2024,14:00,7.350,P,ugm-3 (FIDAS),5.69393,P,ugm-3,31.83882,P,ugm-3,40.56938,P,ugm-3,28.68819,P,ugm-3,4.410,P,ugm-3 (Ref.eq)
05-01-2024,15:00,7.025,P,ugm-3 (FIDAS),5.59102,P,ugm-3,31.38269,P,ugm-3,39.95547,P,ugm-3,27.39098,P,ugm-3,3.373,P,ugm-3 (Ref.eq)
05-01-2024,16:00,16.050,P,ugm-3 (FIDAS),12.31397,P,ugm-3,48.80270,P,ugm-3,67.68385,P,ugm-3,6.03699,P,ugm-3,7.099,P,ugm-3 (Ref.eq)
05-01-2024,17:00,21.900,P,ugm-3 (FIDAS),26.75459,P,ugm-3,54.84954,P,ugm-3,95.87267,P,ugm-3,0.19957,P,ugm-3,12.335,P,ugm-3 (Ref.eq)
05-01-2024,18:00,13.175,P,ugm-3 (FIDAS),6.65435,P,ugm-3,44.63966,P,ugm-3,54.84285,P,ugm-3,11.17592,P,ugm-3,9.458,P,ugm-3 (Ref.eq)
05-01-2024,19:00,16.325,P,ugm-3 (FIDAS),6.07123,P,ugm-3,48.19404,P,ugm-3,57.50314,P,ugm-3,8.68130,P,ugm-3,12.901,P,ugm-3 (Ref.eq)
05-01-2024,20:00,13.950,P,ugm-3 (FIDAS),6.68865,P,ugm-3,46.68460,P,ugm-3,56.94038,P,ugm-3,7.23441,P,ugm-3,11.179,P,ugm-3 (Ref.eq)
05-01-2024,21:00,14.025,P,ugm-3 (FIDAS),29.22424,P,ugm-3,53.31381,P,ugm-3,98.12368,P,ugm-3,0.74839,P,ugm-3,11.486,P,ugm-3 (Ref.eq)
05-01-2024,22:00,14.625,P,ugm-3 (FIDAS),20.71765,P,ugm-3,49.83258,P,ugm-3,81.59920,P,ugm-3,1.74624,P,ugm-3,12.335,P,ugm-3 (Ref.eq)
05-01-2024,23:00,8.650,P,ugm-3 (FIDAS),2.84696,P,ugm-3,29.24643,P,ugm-3,33.61171,P,ugm-3,16.06539,P,ugm-3,7.123,P,ugm-3 (Ref.eq)
05-01-2024,24:00,5.400,P,ugm-3 (FIDAS),1.44063,P,ugm-3,16.10612,P,ugm-3,18.31506,P,ugm-3,26.94195,P,ugm-3,4.387,P,ugm-3 (Ref.eq)
06-01-2024,01:00,4.525,P,ugm-3 (FIDAS),0.77748,P,ugm-3,14.36033,P,ugm-3,15.55245,P,ugm-3,28.13937,P,ugm-3,3.656,P,ugm-3 (Ref.eq)
06-01-2024,02:00,4.150,P,ugm-3 (FIDAS),0.37731,P,ugm-3,11.95552,P,ugm-3,12.53405,P,ugm-3,30.66726,P,ugm-3,3.255,P,ugm-3 (Ref.eq)
06-01-2024,03:00,3.025,P,ugm-3 (FIDAS),0.54881,P,ugm-3,7.75328,P,ugm-3,8.59478,P,ugm-3,38.81637,P,ugm-3,2.075,P,ugm-3 (Ref.eq)
06-01-2024,04:00,3.775,P,ugm-3 (FIDAS),-0.10290,P,ugm-3,7.26893,P,ugm-3,7.11115,P,ugm-3,36.72088,P,ugm-3,2.783,P,ugm-3 (Ref.eq)
06-01-2024,05:00,4.400,P,ugm-3 (FIDAS),0.00000,P,ugm-3,8.44130,P,ugm-3,8.44130,P,ugm-3,32.33034,P,ugm-3,3.443,P,ugm-3 (Ref.eq)
06-01-2024,06:00,4.650,P,ugm-3 (FIDAS),0.24011,P,ugm-3,9.30097,P,ugm-3,9.66912,P,ugm-3,33.72733,P,ugm-3,3.396,P,ugm-3 (Ref.eq)
06-01-2024,07:00,5.950,P,ugm-3 (FIDAS),5.69393,P,ugm-3,20.94188,P,ugm-3,29.67244,P,ugm-3,19.60775,P,ugm-3,4.316,P,ugm-3 (Ref.eq)
06-01-2024,08:00,6.550,P,ugm-3 (FIDAS),44.93398,P,ugm-3,43.49933,P,ugm-3,112.39715,P,ugm-3,1.14753,P,ugm-3,4.764,P,ugm-3 (Ref.eq)
06-01-2024,09:00,11.200,P,ugm-3 (FIDAS),85.20306,P,ugm-3,44.52683,P,ugm-3,175.16970,P,ugm-3,2.99355,P,ugm-3,8.986,P,ugm-3 (Ref.eq)
06-01-2024,10:00,7.050,P,ugm-3 (FIDAS),38.48544,P,ugm-3,39.01118,P,ugm-3,98.02136,P,ugm-3,9.03054,P,ugm-3,4.693,P,ugm-3 (Ref.eq)
06-01-2024,11:00,7.175,P,ugm-3 (FIDAS),10.49603,P,ugm-3,27.80106,P,ugm-3,43.89474,P,ugm-3,24.14797,P,ugm-3,4.976,P,ugm-3 (Ref.eq)
06-01-2024,12:00,10.100,P,ugm-3 (FIDAS),8.36938,P,ugm-3,27.78767,P,ugm-3,40.62054,P,ugm-3,31.28260,P,ugm-3,6.651,P,ugm-3 (Ref.eq)
06-01-2024,13:00,7.775,P,ugm-3 (FIDAS),3.12137,P,ugm-3,15.98468,P,ugm-3,20.77071,P,ugm-3,46.40003,P,ugm-3,4.552,P,ugm-3 (Ref.eq)
06-01-2024,14:00,8.775,P,ugm-3 (FIDAS),3.70448,P,ugm-3,19.33681,P,ugm-3,25.01693,P,ugm-3,41.95959,P,ugm-3,5.519,P,ugm-3 (Ref.eq)
06-01-2024,15:00,8.100,P,ugm-3 (FIDAS),1.81794,P,ugm-3,15.73223,P,ugm-3,18.51969,P,ugm-3,43.85551,P,ugm-3,5.283,P,ugm-3 (Ref.eq)
06-01-2024,16:00,8.725,P,ugm-3 (FIDAS),2.98417,P,ugm-3,28.01287,P,ugm-3,32.58852,P,ugm-3,32.87916,P,ugm-3,5.354,P,ugm-3 (Ref.eq)
06-01-2024,17:00,9.250,P,ugm-3 (FIDAS),5.41952,P,ugm-3,38.96145,P,ugm-3,47.27126,P,ugm-3,20.90496,P,ugm-3,6.368,P,ugm-3 (Ref.eq)
06-01-2024,18:00,8.125,P,ugm-3 (FIDAS),3.25857,P,ugm-3,27.74559,P,ugm-3,32.74200,P,ugm-3,29.68604,P,ugm-3,5.519,P,ugm-3 (Ref.eq)
06-01-2024,19:00,12.525,P,ugm-3 (FIDAS),8.88389,P,ugm-3,41.68150,P,ugm-3,55.30328,P,ugm-3,15.86582,P,ugm-3,9.599,P,ugm-3 (Ref.eq)
06-01-2024,20:00,17.400,P,ugm-3 (FIDAS),35.74138,P,ugm-3,52.47852,P,ugm-3,107.28121,P,ugm-3,5.18882,P,ugm-3,14.127,P,ugm-3 (Ref.eq)
06-01-2024,21:00,10.175,P,ugm-3 (FIDAS),3.39577,P,ugm-3,27.38174,P,ugm-3,32.58852,P,ugm-3,26.89206,P,ugm-3,7.406,P,ugm-3 (Ref.eq)
06-01-2024,22:00,8.175,P,ugm-3 (FIDAS),0.44591,P,ugm-3,15.73844,P,ugm-3,16.42216,P,ugm-3,36.17206,P,ugm-3,5.495,P,ugm-3 (Ref.eq)
06-01-2024,23:00,7.675,P,ugm-3 (FIDAS),0.54881,P,ugm-3,13.99472,P,ugm-3,14.83622,P,ugm-3,35.37378,P,ugm-3,5.212,P,ugm-3 (Ref.eq)
06-01-2024,24:00,8.050,P,ugm-3 (FIDAS),0.82322,P,ugm-3,15.97846,P,ugm-3,17.24071,P,ugm-3,32.57980,P,ugm-3,5.307,P,ugm-3 (Ref.eq)
07-01-2024,01:00,8.475,P,ugm-3 (FIDAS),0.82322,P,ugm-3,13.88093,P,ugm-3,15.14318,P,ugm-3,35.39041,P,ugm-3,5.684,P,ugm-3 (Ref.eq)
07-01-2024,02:00,10.200,P,ugm-3 (FIDAS),-0.04573,P,ugm-3,9.48345,P,ugm-3,9.41333,P,ugm-3,34.72518,P,ugm-3,6.910,P,ugm-3 (Ref.eq)
07-01-2024,03:00,16.000,P,ugm-3 (FIDAS),0.37731,P,ugm-3,8.47668,P,ugm-3,9.05521,P,ugm-3,35.27400,P,ugm-3,9.458,P,ugm-3 (Ref.eq)
07-01-2024,04:00,15.025,P,ugm-3 (FIDAS),0.00000,P,ugm-3,7.41811,P,ugm-3,7.41811,P,ugm-3,40.91185,P,ugm-3,9.080,P,ugm-3 (Ref.eq)
07-01-2024,05:00,11.500,P,ugm-3 (FIDAS),0.48021,P,ugm-3,7.44919,P,ugm-3,8.18550,P,ugm-3,44.75357,P,ugm-3,7.382,P,ugm-3 (Ref.eq)
07-01-2024,06:00,8.925,P,ugm-3 (FIDAS),0.13720,P,ugm-3,9.04947,P,ugm-3,9.25985,P,ugm-3,47.14841,P,ugm-3,5.684,P,ugm-3 (Ref.eq)
07-01-2024,07:00,7.500,P,ugm-3 (FIDAS),-0.06860,P,ugm-3,9.46735,P,ugm-3,9.36217,P,ugm-3,50.59100,P,ugm-3,5.024,P,ugm-3 (Ref.eq)
07-01-2024,08:00,7.950,P,ugm-3 (FIDAS),0.85752,P,ugm-3,11.93543,P,ugm-3,13.25028,P,ugm-3,45.10282,P,ugm-3,5.495,P,ugm-3 (Ref.eq)
07-01-2024,09:00,7.550,P,ugm-3 (FIDAS),0.65171,P,ugm-3,12.96723,P,ugm-3,13.96651,P,ugm-3,47.14841,P,ugm-3,4.929,P,ugm-3 (Ref.eq)
07-01-2024,10:00,7.325,P,ugm-3 (FIDAS),0.96042,P,ugm-3,16.89359,P,ugm-3,18.36622,P,ugm-3,47.14841,P,ugm-3,4.811,P,ugm-3 (Ref.eq)
07-01-2024,11:00,8.725,P,ugm-3 (FIDAS),1.95514,P,ugm-3,16.80083,P,ugm-3,19.79868,P,ugm-3,47.94669,P,ugm-3,6.368,P,ugm-3 (Ref.eq)
07-01-2024,12:00,9.450,P,ugm-3 (FIDAS),1.71504,P,ugm-3,15.32725,P,ugm-3,17.95694,P,ugm-3,49.59315,P,ugm-3,7.005,P,ugm-3 (Ref.eq)
07-01-2024,13:00,8.100,P,ugm-3 (FIDAS),5.55672,P,ugm-3,18.74776,P,ugm-3,27.26795,P,ugm-3,46.94884,P,ugm-3,5.566,P,ugm-3 (Ref.eq)
07-01-2024,14:00,6.725,P,ugm-3 (FIDAS),2.29815,P,ugm-3,17.65620,P,ugm-3,21.17998,P,ugm-3,50.54110,P,ugm-3,4.458,P,ugm-3 (Ref.eq)
07-01-2024,15:00,7.975,P,ugm-3 (FIDAS),4.63060,P,ugm-3,20.67938,P,ugm-3,27.77954,P,ugm-3,48.69508,P,ugm-3,4.811,P,ugm-3 (Ref.eq)
07-01-2024,16:00,9.825,P,ugm-3 (FIDAS),2.43535,P,ugm-3,26.44988,P,ugm-3,30.18403,P,ugm-3,40.61250,P,ugm-3,5.943,P,ugm-3 (Ref.eq)
07-01-2024,17:00,15.550,P,ugm-3 (FIDAS),12.45117,P,ugm-3,53.09435,P,ugm-3,72.18588,P,ugm-3,11.52517,P,ugm-3,10.731,P,ugm-3 (Ref.eq)
07-01-2024,18:00,17.325,P,ugm-3 (FIDAS),32.65431,P,ugm-3,61.15123,P,ugm-3,111.22048,P,ugm-3,0.74839,P,ugm-3,13.443,P,ugm-3 (Ref.eq)
07-01-2024,19:00,21.800,P,ugm-3 (FIDAS),56.66484,P,ugm-3,62.44934,P,ugm-3,149.33422,P,ugm-3,1.44688,P,ugm-3,16.651,P,ugm-3 (Ref.eq)
07-01-2024,20:00,15.625,P,ugm-3 (FIDAS),9.60421,P,ugm-3,50.09268,P,ugm-3,64.81893,P,ugm-3,9.08044,P,ugm-3,11.722,P,ugm-3 (Ref.eq)
07-01-2024,21:00,13.125,P,ugm-3 (FIDAS),8.81529,P,ugm-3,45.16321,P,ugm-3,58.67980,P,ugm-3,14.46883,P,ugm-3,9.599,P,ugm-3 (Ref.eq)
07-01-2024,22:00,13.750,P,ugm-3 (FIDAS),2.98417,P,ugm-3,40.29112,P,ugm-3,44.86677,P,ugm-3,16.81377,P,ugm-3,10.377,P,ugm-3 (Ref.eq)
07-01-2024,23:00,16.500,P,ugm-3 (FIDAS),3.12137,P,ugm-3,34.91364,P,ugm-3,39.69968,P,ugm-3,24.09808,P,ugm-3,12.594,P,ugm-3 (Ref.eq)
07-01-2024,24:00,12.625,P,ugm-3 (FIDAS),0.17150,P,ugm-3,23.16803,P,ugm-3,23.43099,P,ugm-3,41.01164,P,ugm-3,8.844,P,ugm-3 (Ref.eq)
08-01-2024,01:00,11.675,P,ugm-3 (FIDAS),0.86895,P,ugm-3,23.76983,P,ugm-3,25.10220,P,ugm-3,38.51701,P,ugm-3,8.255,P,ugm-3 (Ref.eq)
08-01-2024,02:00,12.625,P,ugm-3 (FIDAS),0.36587,P,ugm-3,28.22468,P,ugm-3,28.78567,P,ugm-3,25.61148,P,ugm-3,9.717,P,ugm-3 (Ref.eq)
08-01-2024,03:00,11.425,P,ugm-3 (FIDAS),0.37731,P,ugm-3,24.13145,P,ugm-3,24.70998,P,ugm-3,33.52776,P,ugm-3,7.995,P,ugm-3 (Ref.eq)
08-01-2024,04:00,9.925,P,ugm-3 (FIDAS),-0.03430,P,ugm-3,14.63302,P,ugm-3,14.58042,P,ugm-3,46.49981,P,ugm-3,6.934,P,ugm-3 (Ref.eq)
08-01-2024,05:00,9.500,P,ugm-3 (FIDAS),0.10290,P,ugm-3,11.81351,P,ugm-3,11.97129,P,ugm-3,52.18756,P,ugm-3,5.991,P,ugm-3 (Ref.eq)
08-01-2024,06:00,8.450,P,ugm-3 (FIDAS),0.51451,P,ugm-3,14.30311,P,ugm-3,15.09202,P,ugm-3,55.58025,P,ugm-3,4.811,P,ugm-3 (Ref.eq)
08-01-2024,07:00,7.000,P,ugm-3 (FIDAS),0.48021,P,ugm-3,14.76498,P,ugm-3,15.50129,P,ugm-3,52.48691,P,ugm-3,4.410,P,ugm-3 (Ref.eq)
08-01-2024,08:00,7.600,P,ugm-3 (FIDAS),3.94459,P,ugm-3,38.97197,P,ugm-3,45.02025,P,ugm-3,25.19571,P,ugm-3,4.788,P,ugm-3 (Ref.eq)
08-01-2024,09:00,8.600,P,ugm-3 (FIDAS),6.31134,P,ugm-3,46.54690,P,ugm-3,56.22415,P,ugm-3,25.39528,P,ugm-3,4.363,P,ugm-3 (Ref.eq)
08-01-2024,10:00,7.450,P,ugm-3 (FIDAS),3.01847,P,ugm-3,29.23926,P,ugm-3,33.86751,P,ugm-3,46.89895,P,ugm-3,3.726,P,ugm-3 (Ref.eq)
08-01-2024,11:00,9.800,P,ugm-3 (FIDAS),4.04749,P,ugm-3,19.37363,P,ugm-3,25.57969,P,ugm-3,55.38068,P,ugm-3,4.175,P,ugm-3 (Ref.eq)
08-01-2024,12:00,10.900,P,ugm-3 (FIDAS),2.64116,P,ugm-3,15.33968,P,ugm-3,19.38940,P,ugm-3,61.56735,P,ugm-3,4.245,P,ugm-3 (Ref.eq)
08-01-2024,13:00,12.225,P,ugm-3 (FIDAS),2.16095,P,ugm-3,13.26223,P,ugm-3,16.57564,P,ugm-3,61.01853,P,ugm-3,4.434,P,ugm-3 (Ref.eq)
08-01-2024,14:00,10.775,P,ugm-3 (FIDAS),1.98944,P,ugm-3,13.88332,P,ugm-3,16.93375,P,ugm-3,59.72132,P,ugm-3,4.292,P,ugm-3 (Ref.eq)